When you browse on this site, cookies collect data to enhance your experience and personalize the content and advertising you see.
Visit our Privacy Policy to learn more. By continuing to use the site, you agree to this use of cookies and data.
  • In Hungary
  • List of Countries
  • For 7 days
  • Water Temperature
  • Satellite Maps
  • Weather Map
  • News
  • Weather Widgets
  • user-avatar
    Login

    Hourly Weather Doborshino

    Today, 16 January, Wednesday

    Time Temperature Precipitation Wind Pressure Humidity
    00:00 -9°C° 0 mm 4 mps 730 mmHg 89%
    01:00 -9°C° 0 mm 3 mps 731 mmHg 90%
    02:00 -10°C° 0 mm 3 mps 731 mmHg 90%
    03:00 -10°C° 0 mm 3 mps 731 mmHg 90%
    04:00 -10°C° 0 mm 3 mps 731 mmHg 90%
    05:00 -9°C° 0 mm 3 mps 732 mmHg 91%
    06:00 -9°C° 0 mm 2 mps 732 mmHg 92%
    07:00 -9°C° 0 mm 2 mps 732 mmHg 92%
    08:00 -10°C° 0 mm 2 mps 732 mmHg 93%
    09:00 -9°C° 0 mm 2 mps 732 mmHg 92%
    10:00 -9°C° 0 mm 2 mps 732 mmHg 91%
    11:00 -9°C° 0 mm 2 mps 733 mmHg 90%
    12:00 -9°C° 0 mm 2 mps 733 mmHg 91%
    13:00 -9°C° 0 mm 2 mps 733 mmHg 91%
    14:00 -9°C° 0 mm 2 mps 733 mmHg 92%
    15:00 -10°C° 0 mm 2 mps 733 mmHg 93%
    16:00 -10°C° 0 mm 2 mps 734 mmHg 93%
    17:00 -12°C° 0 mm 2 mps 734 mmHg 94%
    18:00 -10°C° 0 mm 2 mps 734 mmHg 94%
    19:00 -9°C° 0 mm 2 mps 735 mmHg 94%
    20:00 -10°C° 0 mm 3 mps 735 mmHg 94%
    21:00 -9°C° 0 mm 3 mps 735 mmHg 93%
    22:00 -9°C° 0 mm 3 mps 736 mmHg 93%
    23:00 -9°C° 0 mm 3 mps 736 mmHg 93%

    Tomorrow, 17 January, Thursday

    Time Temperature Precipitation Wind Pressure Humidity
    00:00 -9°C° 0 mm 3 mps 736 mmHg 92%
    01:00 -10°C° 0 mm 3 mps 737 mmHg 91%
    02:00 -10°C° 0 mm 3 mps 737 mmHg 90%
    03:00 -12°C° 0 mm 3 mps 737 mmHg 91%
    04:00 -13°C° 0 mm 3 mps 737 mmHg 93%
    05:00 -14°C° 0 mm 3 mps 737 mmHg 95%
    06:00 -14°C° 0 mm 3 mps 737 mmHg 95%
    07:00 -13°C° 0 mm 3 mps 736 mmHg 94%
    08:00 -14°C° 0 mm 4 mps 736 mmHg 94%
    09:00 -11°C° 0.4 mm 4 mps 736 mmHg 93%
    10:00 -11°C° 0.4 mm 5 mps 735 mmHg 92%
    11:00 -8°C° 0.4 mm 5 mps 735 mmHg 92%
    12:00 -7°C° 0.6 mm 5 mps 734 mmHg 91%
    13:00 -6°C° 0.6 mm 5 mps 733 mmHg 90%
    14:00 -4°C° 0.6 mm 5 mps 733 mmHg 90%
    15:00 -3°C° 0.2 mm 6 mps 732 mmHg 89%
    16:00 -3°C° 0.2 mm 6 mps 732 mmHg 88%
    17:00 -2°C° 0.2 mm 6 mps 731 mmHg 87%
    18:00 -2°C° 0.6 mm 7 mps 731 mmHg 86%
    19:00 -2°C° 0.6 mm 7 mps 730 mmHg 86%
    20:00 -1°C° 0.6 mm 7 mps 730 mmHg 85%
    21:00 -1°C° 0.1 mm 6 mps 730 mmHg 85%
    22:00 -2°C° 0.1 mm 6 mps 730 mmHg 85%
    23:00 -2°C° 0.1 mm 6 mps 730 mmHg 85%

    Day after tomorrow, 18 January, Friday

    Time Temperature Precipitation Wind Pressure Humidity
    00:00 -1°C° 0 mm 5 mps 731 mmHg 85%
    01:00 -1°C° 0 mm 5 mps 731 mmHg 85%
    02:00 -1°C° 0 mm 5 mps 732 mmHg 85%
    03:00 -1°C° 0 mm 5 mps 732 mmHg 86%
    04:00 -1°C° 0 mm 5 mps 732 mmHg 86%
    05:00 -1°C° 0 mm 5 mps 731 mmHg 87%
    06:00 -1°C° 0 mm 5 mps 731 mmHg 86%
    07:00 -1°C° 0 mm 5 mps 731 mmHg 86%
    08:00 -1°C° 0 mm 5 mps 730 mmHg 86%
    09:00 -2°C° 0.1 mm 6 mps 730 mmHg 86%
    10:00 -2°C° 0.1 mm 6 mps 730 mmHg 85%
    11:00 -2°C° 0.1 mm 7 mps 730 mmHg 84%
    12:00 -2°C° 0.2 mm 7 mps 730 mmHg 82%
    13:00 -3°C° 0.2 mm 6 mps 730 mmHg 79%
    14:00 -4°C° 0.2 mm 6 mps 730 mmHg 76%
    15:00 -4°C° 0 mm 6 mps 730 mmHg 77%
    16:00 -5°C° 0 mm 6 mps 731 mmHg 79%
    17:00 -6°C° 0 mm 5 mps 731 mmHg 80%
    18:00 -6°C° 0.2 mm 5 mps 732 mmHg 82%
    19:00 -6°C° 0.2 mm 5 mps 732 mmHg 83%
    20:00 -6°C° 0.2 mm 5 mps 733 mmHg 85%
    21:00 -7°C° 0.1 mm 5 mps 733 mmHg 84%
    22:00 -8°C° 0.1 mm 5 mps 734 mmHg 83%
    23:00 -8°C° 0.1 mm 5 mps 734 mmHg 83%

    19 January, Saturday

    Time Temperature Precipitation Wind Pressure Humidity
    00:00 -8°C° 0 mm 5 mps 735 mmHg 83%
    01:00 -8°C° 0 mm 5 mps 735 mmHg 83%
    02:00 -10°C° 0 mm 5 mps 736 mmHg 83%
    03:00 -10°C° 0 mm 5 mps 736 mmHg 82%
    04:00 -10°C° 0 mm 5 mps 736 mmHg 82%
    05:00 -10°C° 0 mm 5 mps 736 mmHg 82%
    06:00 -10°C° 0 mm 5 mps 737 mmHg 82%
    07:00 -10°C° 0 mm 5 mps 737 mmHg 82%
    08:00 -10°C° 0 mm 5 mps 738 mmHg 82%
    09:00 -10°C° 0 mm 5 mps 738 mmHg 81%
    10:00 -8°C° 0 mm 5 mps 739 mmHg 80%
    11:00 -9°C° 0 mm 6 mps 739 mmHg 80%
    12:00 -8°C° 0.1 mm 5 mps 740 mmHg 80%
    13:00 -7°C° 0.1 mm 5 mps 740 mmHg 80%
    14:00 -7°C° 0.1 mm 5 mps 740 mmHg 80%
    15:00 -7°C° 0.1 mm 5 mps 740 mmHg 81%
    16:00 -8°C° 0.1 mm 5 mps 741 mmHg 82%
    17:00 -8°C° 0.1 mm 5 mps 741 mmHg 83%
    18:00 -8°C° 0 mm 5 mps 741 mmHg 83%
    19:00 -8°C° 0 mm 5 mps 741 mmHg 84%
    20:00 -8°C° 0 mm 5 mps 741 mmHg 84%
    21:00 -8°C° 0.1 mm 5 mps 742 mmHg 85%
    22:00 -8°C° 0.1 mm 5 mps 742 mmHg 86%
    23:00 -8°C° 0.1 mm 5 mps 742 mmHg 87%

    20 January, Sunday

    Time Temperature Precipitation Wind Pressure Humidity
    00:00 -8°C° 0 mm 5 mps 742 mmHg 87%
    01:00 -8°C° 0 mm 4 mps 743 mmHg 87%
    02:00 -8°C° 0 mm 4 mps 743 mmHg 87%
    03:00 -9°C° 0 mm 4 mps 743 mmHg 87%
    04:00 -9°C° 0 mm 4 mps 743 mmHg 88%
    05:00 -9°C° 0 mm 4 mps 743 mmHg 88%
    06:00 -9°C° 0 mm 3 mps 743 mmHg 89%
    07:00 -9°C° 0 mm 3 mps 744 mmHg 91%
    08:00 -10°C° 0 mm 3 mps 744 mmHg 92%
    09:00 -9°C° 0 mm 3 mps 744 mmHg 91%
    10:00 -9°C° 0 mm 3 mps 745 mmHg 91%
    11:00 -8°C° 0 mm 3 mps 745 mmHg 91%
    12:00 -8°C° 0.1 mm 3 mps 745 mmHg 90%
    13:00 -8°C° 0.1 mm 3 mps 745 mmHg 89%
    14:00 -8°C° 0.1 mm 3 mps 745 mmHg 89%
    15:00 -7°C° 0.1 mm 2 mps 745 mmHg 90%
    16:00 -8°C° 0.1 mm 2 mps 745 mmHg 92%
    17:00 -8°C° 0.1 mm 2 mps 745 mmHg 94%
    18:00 -9°C° 0 mm 2 mps 746 mmHg 94%
    19:00 -9°C° 0 mm 2 mps 746 mmHg 95%
    20:00 -10°C° 0 mm 2 mps 746 mmHg 95%
    21:00 -12°C° 0 mm 2 mps 746 mmHg 96%
    22:00 -10°C° 0 mm 1 mps 746 mmHg 96%
    23:00 -11°C° 0 mm 1 mps 746 mmHg 96%

    21 January, Monday

    Time Temperature Precipitation Wind Pressure Humidity
    00:00 -11°C° 0 mm 1 mps 746 mmHg 96%
    01:00 -11°C° 0 mm 1 mps 747 mmHg 96%
    02:00 -10°C° 0 mm 1 mps 747 mmHg 96%
    03:00 -11°C° 0 mm 1 mps 747 mmHg 96%
    04:00 -12°C° 0 mm 1 mps 747 mmHg 97%
    05:00 -15°C° 0 mm 2 mps 747 mmHg 97%
    06:00 -16°C° 0 mm 2 mps 748 mmHg 97%
    07:00 -14°C° 0 mm 1 mps 748 mmHg 97%
    08:00 -15°C° 0 mm 1 mps 748 mmHg 97%
    09:00 -16°C° 0 mm 2 mps 749 mmHg 96%
    10:00 -16°C° 0 mm 2 mps 749 mmHg 95%
    11:00 -15°C° 0 mm 2 mps 749 mmHg 94%
    12:00 -15°C° 0 mm 2 mps 750 mmHg 94%
    13:00 -15°C° 0 mm 2 mps 750 mmHg 94%
    14:00 -15°C° 0 mm 2 mps 750 mmHg 93%
    15:00 -16°C° 0 mm 2 mps 750 mmHg 94%
    16:00 -17°C° 0 mm 2 mps 750 mmHg 96%
    17:00 -18°C° 0 mm 2 mps 751 mmHg 97%
    18:00 -19°C° 0 mm 2 mps 751 mmHg 97%
    19:00 -19°C° 0 mm 2 mps 751 mmHg 97%
    20:00 -19°C° 0 mm 2 mps 751 mmHg 97%
    21:00 -20°C° 0 mm 2 mps 751 mmHg 97%
    22:00 -20°C° 0 mm 2 mps 751 mmHg 97%
    23:00 -21°C° 0 mm 2 mps 751 mmHg 98%
    Show more